| time (UTC) | temp C | wind direction | speed KPH | gust KPH | rain 1hr cm | rain 24hr cm | rain mn cm | humidity % | barometer mb |
| 20260505101950 | 9 | 42 | 0.0 | 0.0 | 0.00 | 0.00 | 0.00 | 86 | 1021.1 |
| 20260505101448 | 9 | 42 | 0.0 | 0.0 | 0.00 | 0.00 | 0.00 | 86 | 1021.0 |
| 20260505100949 | 9 | 42 | 0.0 | 3.2 | 0.00 | 0.00 | 0.00 | 86 | 1020.9 |
| 20260505100448 | 9 | 35 | 0.0 | 6.4 | 0.00 | 0.00 | 0.00 | 86 | 1020.8 |
| 20260505095947 | 9 | 77 | 0.0 | 6.4 | 0.00 | 0.00 | 0.00 | 87 | 1020.8 |
| 20260505095446 | 9 | 1 | 0.0 | 0.0 | 0.00 | 0.00 | 0.00 | 86 | 1020.7 |
| 20260505094946 | 9 | 0 | 0.0 | 0.0 | 0.00 | 0.00 | 0.00 | 86 | 1020.7 |
| 20260505094446 | 9 | 49 | 0.0 | 0.0 | 0.00 | 0.00 | 0.00 | 85 | 1020.7 |
| 20260505093946 | 9 | 49 | 0.0 | 0.0 | 0.00 | 0.00 | 0.00 | 84 | 1020.6 |
| 20260505093444 | 10 | 49 | 0.0 | 0.0 | 0.00 | 0.00 | 0.00 | 82 | 1020.5 |
| 20260505093201 | 10 | 49 | 0.0 | 0.0 | 0.00 | 0.00 | 0.00 | 81 | 1020.5 |
| 20260505092441 | 10 | 49 | 0.0 | 0.0 | 0.00 | 0.00 | 0.00 | 81 | 1020.4 |
| 20260505091940 | 10 | 49 | 0.0 | 0.0 | 0.00 | 0.00 | 0.00 | 81 | 1020.4 |
| 20260505091438 | 11 | 49 | 0.0 | 3.2 | 0.00 | 0.00 | 0.00 | 80 | 1020.2 |
| 20260505090939 | 11 | 49 | 0.0 | 3.2 | 0.00 | 0.00 | 0.00 | 80 | 1020.2 |
| 20260505090435 | 11 | 40 | 0.0 | 6.4 | 0.00 | 0.00 | 0.00 | 79 | 1020.2 |
| 20260505085936 | 11 | 16 | 0.0 | 6.4 | 0.00 | 0.00 | 0.00 | 79 | 1020.1 |
| 20260505085434 | 11 | 57 | 0.0 | 6.4 | 0.00 | 0.00 | 0.00 | 78 | 1019.9 |
| 20260505084933 | 11 | 38 | 0.0 | 6.4 | 0.00 | 0.00 | 0.00 | 78 | 1019.9 |
| 20260505084920 | 11 | 17 | 1.6 | 6.4 | 0.00 | 0.00 | 0.00 | 78 | 1019.8 |
| 20260505083932 | 11 | 8 | 1.6 | 6.4 | 0.00 | 0.00 | 0.00 | 77 | 1019.6 |
| 20260505083650 | 11 | 45 | 1.6 | 6.4 | 0.00 | 0.00 | 0.00 | 77 | 1019.6 |
| 20260505083413 | 11 | 4 | 3.2 | 6.4 | 0.00 | 0.00 | 0.00 | 76 | 1019.5 |
| 20260505082435 | 11 | 22 | 1.6 | 6.4 | 0.00 | 0.00 | 0.00 | 76 | 1019.4 |
| 20260505081933 | 12 | 322 | 0.0 | 6.4 | 0.00 | 0.00 | 0.00 | 76 | 1019.3 |
| 20260505081432 | 12 | 348 | 0.0 | 6.4 | 0.00 | 0.00 | 0.00 | 75 | 1019.3 |
| 20260505081154 | 12 | 64 | 1.6 | 6.4 | 0.00 | 0.00 | 0.00 | 75 | 1019.3 |
| 20260505080656 | 12 | 25 | 1.6 | 8.0 | 0.00 | 0.00 | 0.00 | 74 | 1019.2 |
| 20260505080155 | 12 | 32 | 1.6 | 9.7 | 0.00 | 0.00 | 0.00 | 74 | 1019.2 |
| 20260505075433 | 12 | 52 | 0.0 | 9.7 | 0.00 | 0.00 | 0.00 | 73 | 1019.1 |
| 20260505074939 | 12 | 61 | 1.6 | 8.0 | 0.00 | 0.00 | 0.00 | 72 | 1019.1 |
| 20260505074434 | 13 | 334 | 1.6 | 6.4 | 0.00 | 0.00 | 0.00 | 72 | 1019.0 |
| 20260505073933 | 13 | 48 | 1.6 | 6.4 | 0.00 | 0.00 | 0.00 | 72 | 1019.0 |
| 20260505073433 | 13 | 1 | 1.6 | 12.9 | 0.00 | 0.00 | 0.00 | 71 | 1018.9 |
| 20260505073426 | 13 | 36 | 1.6 | 12.9 | 0.00 | 0.00 | 0.00 | 70 | 1018.8 |
| 20260505072433 | 13 | 45 | 1.6 | 8.0 | 0.00 | 0.00 | 0.00 | 69 | 1018.7 |
| 20260505071926 | 13 | 11 | 1.6 | 8.0 | 0.00 | 0.00 | 0.00 | 68 | 1018.6 |
| 20260505071425 | 14 | 18 | 1.6 | 6.4 | 0.00 | 0.00 | 0.00 | 67 | 1018.5 |
| 20260505070910 | 14 | 7 | 1.6 | 9.7 | 0.00 | 0.00 | 0.00 | 67 | 1018.4 |
| 20260505070629 | 14 | 337 | 3.2 | 9.7 | 0.00 | 0.00 | 0.00 | 66 | 1018.2 |
| 20260505065903 | 14 | 20 | 1.6 | 8.0 | 0.00 | 0.00 | 0.00 | 66 | 1018.2 |
| 20260505065403 | 15 | 55 | 3.2 | 11.3 | 0.00 | 0.00 | 0.00 | 66 | 1018.2 |
| 20260505064902 | 15 | 298 | 4.8 | 11.3 | 0.00 | 0.00 | 0.00 | 65 | 1018.1 |
| 20260505064402 | 15 | 44 | 3.2 | 9.7 | 0.00 | 0.00 | 0.00 | 64 | 1018.1 |
| 20260505063901 | 15 | 28 | 1.6 | 9.7 | 0.00 | 0.00 | 0.00 | 64 | 1017.9 |
| 20260505063356 | 15 | 20 | 3.2 | 12.9 | 0.00 | 0.00 | 0.00 | 64 | 1017.9 |
| 20260505062856 | 15 | 71 | 4.8 | 12.9 | 0.00 | 0.00 | 0.00 | 63 | 1017.9 |
| 20260505062400 | 15 | 302 | 3.2 | 12.9 | 0.00 | 0.00 | 0.00 | 63 | 1017.8 |
| 20260505061857 | 16 | 61 | 3.2 | 12.9 | 0.00 | 0.00 | 0.00 | 63 | 1017.8 |
| 20260505061619 | 16 | 287 | 4.8 | 14.5 | 0.00 | 0.00 | 0.00 | 63 | 1017.7 |
| 20260505060854 | 16 | 43 | 6.4 | 14.5 | 0.00 | 0.00 | 0.00 | 62 | 1017.7 |
| 20260505060353 | 16 | 51 | 4.8 | 12.9 | 0.00 | 0.00 | 0.00 | 62 | 1017.6 |
| 20260505055853 | 16 | 42 | 6.4 | 20.9 | 0.00 | 0.00 | 0.00 | 60 | 1017.6 |
| 20260505055618 | 16 | 10 | 6.4 | 20.9 | 0.00 | 0.00 | 0.00 | 60 | 1017.4 |
| 20260505054852 | 16 | 67 | 6.4 | 17.7 | 0.00 | 0.00 | 0.00 | 59 | 1017.4 |
| 20260505054352 | 16 | 59 | 6.4 | 16.1 | 0.00 | 0.00 | 0.00 | 59 | 1017.4 |
| 20260505053847 | 16 | 38 | 6.4 | 16.1 | 0.00 | 0.00 | 0.00 | 58 | 1017.3 |
| 20260505053340 | 16 | 336 | 4.8 | 12.9 | 0.00 | 0.00 | 0.00 | 58 | 1017.3 |
| 20260505053056 | 17 | 67 | 3.2 | 12.9 | 0.00 | 0.00 | 0.00 | 58 | 1017.3 |
| 20260505052329 | 17 | 284 | 3.2 | 9.7 | 0.00 | 0.00 | 0.00 | 57 | 1017.2 |
| 20260505051822 | 17 | 50 | 3.2 | 9.7 | 0.00 | 0.00 | 0.00 | 57 | 1017.2 |
| 20260505051316 | 17 | 9 | 3.2 | 11.3 | 0.00 | 0.00 | 0.00 | 58 | 1017.2 |
| 20260505050809 | 17 | 31 | 4.8 | 12.9 | 0.00 | 0.00 | 0.00 | 57 | 1017.1 |
| 20260505050304 | 17 | 322 | 4.8 | 12.9 | 0.00 | 0.00 | 0.00 | 57 | 1017.1 |
| 20260505041709 | 16 | 299 | 4.8 | 19.3 | 0.00 | 0.00 | 0.00 | 60 | 1016.9 |
| 20260505041202 | 16 | 325 | 6.4 | 19.3 | 0.00 | 0.03 | 0.00 | 60 | 1016.9 |
| 20260505040656 | 16 | 289 | 6.4 | 16.1 | 0.00 | 0.03 | 0.00 | 60 | 1016.9 |
| 20260505040151 | 16 | 331 | 4.8 | 17.7 | 0.00 | 0.03 | 0.00 | 60 | 1017.0 |
| 20260505035913 | 16 | 306 | 6.4 | 20.9 | 0.00 | 0.03 | 0.00 | 61 | 1017.0 |
| 20260505035139 | 16 | 44 | 6.4 | 20.9 | 0.00 | 0.03 | 0.00 | 61 | 1017.0 |
| 20260505034632 | 16 | 329 | 6.4 | 17.7 | 0.00 | 0.05 | 0.00 | 61 | 1017.1 |
| 20260505034127 | 16 | 334 | 4.8 | 17.7 | 0.00 | 0.05 | 0.00 | 60 | 1017.0 |
| 20260505033620 | 16 | 270 | 4.8 | 12.9 | 0.00 | 0.05 | 0.00 | 60 | 1017.0 |
| 20260505033121 | 16 | 310 | 6.4 | 14.5 | 0.00 | 0.13 | 0.00 | 61 | 1017.0 |
| 20260505032613 | 16 | 12 | 4.8 | 14.5 | 0.00 | 0.13 | 0.00 | 59 | 1017.1 |
| 20260505032547 | 16 | 33 | 4.8 | 14.5 | 0.00 | 0.13 | 0.00 | 60 | 1017.1 |
| 20260505031556 | 16 | 284 | 4.8 | 16.1 | 0.00 | 0.13 | 0.00 | 60 | 1017.2 |
| 20260505031050 | 16 | 8 | 4.8 | 16.1 | 0.00 | 0.13 | 0.00 | 58 | 1017.2 |
| 20260505031036 | 16 | 14 | 3.2 | 14.5 | 0.00 | 0.13 | 0.00 | 59 | 1017.3 |
| 20260505030043 | 16 | 319 | 3.2 | 14.5 | 0.00 | 0.13 | 0.00 | 59 | 1017.3 |
| 20260505025533 | 16 | 295 | 3.2 | 17.7 | 0.00 | 0.13 | 0.00 | 58 | 1017.4 |
| 20260505025026 | 16 | 36 | 3.2 | 16.1 | 0.00 | 0.13 | 0.00 | 58 | 1017.4 |
| 20260505024520 | 16 | 43 | 3.2 | 16.1 | 0.00 | 0.13 | 0.00 | 58 | 1017.4 |
| 20260505024016 | 16 | 325 | 3.2 | 14.5 | 0.00 | 0.13 | 0.00 | 56 | 1017.5 |
| 20260505023513 | 16 | 17 | 3.2 | 11.3 | 0.00 | 0.13 | 0.00 | 57 | 1017.5 |
| 20260505023227 | 16 | 303 | 3.2 | 11.3 | 0.00 | 0.13 | 0.00 | 58 | 1017.6 |
| 20260505022719 | 16 | 36 | 3.2 | 12.9 | 0.00 | 0.13 | 0.00 | 57 | 1017.6 |
| 20260505021950 | 16 | 306 | 3.2 | 12.9 | 0.00 | 0.13 | 0.00 | 56 | 1017.7 |
| 20260505021933 | 16 | 294 | 1.6 | 9.7 | 0.00 | 0.13 | 0.00 | 55 | 1017.9 |
| 20260505020938 | 16 | 44 | 1.6 | 9.7 | 0.00 | 0.13 | 0.00 | 58 | 1018.0 |
| 20260505020438 | 16 | 298 | 1.6 | 9.7 | 0.00 | 0.13 | 0.00 | 57 | 1017.9 |
| 20260505015928 | 16 | 272 | 1.6 | 9.7 | 0.00 | 0.13 | 0.00 | 57 | 1017.9 |
| 20260505015420 | 16 | 48 | 1.6 | 9.7 | 0.00 | 0.13 | 0.00 | 58 | 1018.1 |
| 20260505014916 | 16 | 355 | 1.6 | 9.7 | 0.00 | 0.13 | 0.00 | 58 | 1018.2 |
| 20260505014409 | 15 | 254 | 1.6 | 8.0 | 0.00 | 0.13 | 0.00 | 61 | 1018.2 |
| 20260505013902 | 15 | 16 | 3.2 | 11.3 | 0.00 | 0.13 | 0.00 | 59 | 1018.4 |
| 20260505013356 | 15 | 48 | 4.8 | 11.3 | 0.00 | 0.13 | 0.00 | 59 | 1018.5 |
| 20260505013116 | 15 | 52 | 4.8 | 12.9 | 0.00 | 0.13 | 0.00 | 61 | 1018.5 |
| 20260505012350 | 15 | 19 | 3.2 | 17.7 | 0.00 | 0.13 | 0.00 | 61 | 1018.5 |
| 20260505011850 | 15 | 292 | 3.2 | 17.7 | 0.00 | 0.13 | 0.00 | 62 | 1018.4 |
| 20260505011611 | 15 | 235 | 3.2 | 11.3 | 0.00 | 0.13 | 0.00 | 63 | 1018.5 |
| 20260505010852 | 15 | 104 | 4.8 | 11.3 | 0.00 | 0.13 | 0.00 | 63 | 1018.6 |
| 20260505010348 | 15 | 2 | 4.8 | 11.3 | 0.00 | 0.13 | 0.00 | 60 | 1018.6 |
| 20260505010109 | 15 | 304 | 3.2 | 11.3 | 0.00 | 0.13 | 0.00 | 59 | 1018.6 |
| 20260505005618 | 15 | 353 | 1.6 | 9.7 | 0.00 | 0.13 | 0.00 | 59 | 1018.5 |
| 20260505004848 | 15 | 56 | 3.2 | 12.9 | 0.00 | 0.13 | 0.00 | 59 | 1018.6 |
| 20260505004349 | 15 | 63 | 6.4 | 17.7 | 0.00 | 0.13 | 0.00 | 59 | 1018.6 |
| 20260505003846 | 15 | 344 | 4.8 | 17.7 | 0.00 | 0.13 | 0.00 | 58 | 1018.6 |
| 20260505003347 | 15 | 27 | 3.2 | 14.5 | 0.00 | 0.15 | 0.00 | 60 | 1018.5 |
| 20260505002848 | 15 | 307 | 3.2 | 14.5 | 0.00 | 0.15 | 0.00 | 59 | 1018.4 |
| 20260505002612 | 15 | 295 | 3.2 | 11.3 | 0.00 | 0.15 | 0.00 | 59 | 1018.4 |
| 20260505001846 | 15 | 279 | 1.6 | 11.3 | 0.00 | 0.23 | 0.00 | 58 | 1018.2 |
| 20260505001348 | 14 | 22 | 1.6 | 8.0 | 0.00 | 0.25 | 0.00 | 62 | 1018.2 |
| 20260505001100 | 14 | 270 | 1.6 | 8.0 | 0.00 | 0.25 | 0.00 | 61 | 1018.1 |
| 20260505000343 | 14 | 26 | 1.6 | 8.0 | 0.00 | 0.25 | 0.00 | 60 | 1018.1 |
| 20260504235842 | 14 | 331 | 1.6 | 8.0 | 0.00 | 0.25 | 0.00 | 60 | 1018.0 |
| 20260504235342 | 14 | 48 | 1.6 | 8.0 | 0.00 | 0.28 | 0.00 | 61 | 1018.0 |
| 20260504235110 | 14 | 54 | 1.6 | 8.0 | 0.00 | 0.28 | 0.00 | 62 | 1018.0 |
| 20260504234342 | 14 | 26 | 1.6 | 11.3 | 0.00 | 0.33 | 0.00 | 63 | 1018.2 |
| 20260504233842 | 13 | 274 | 1.6 | 11.3 | 0.00 | 0.41 | 0.00 | 62 | 1018.1 |
| 20260504233340 | 13 | 356 | 1.6 | 6.4 | 0.00 | 0.43 | 0.00 | 63 | 1018.1 |
| 20260504232842 | 13 | 286 | 1.6 | 9.7 | 0.00 | 0.43 | 0.00 | 63 | 1017.8 |
| 20260504232602 | 13 | 29 | 3.2 | 11.3 | 0.00 | 0.43 | 0.00 | 66 | 1017.8 |
| 20260504231840 | 13 | 33 | 3.2 | 11.3 | 0.00 | 0.46 | 0.00 | 66 | 1017.6 |
| 20260504231340 | 13 | 243 | 3.2 | 11.3 | 0.00 | 0.48 | 0.00 | 67 | 1017.6 |
| 20260504230840 | 13 | 276 | 1.6 | 8.0 | 0.00 | 0.48 | 0.00 | 66 | 1017.7 |
| 20260504230340 | 13 | 332 | 0.0 | 6.4 | 0.00 | 0.48 | 0.00 | 66 | 1017.7 |
| 20260504230058 | 13 | 313 | 0.0 | 4.8 | 0.00 | 0.48 | 0.00 | 67 | 1017.8 |
| 20260504225342 | 13 | 351 | 0.0 | 4.8 | 0.00 | 0.51 | 0.00 | 67 | 1017.8 |
| 20260504224840 | 13 | 299 | 0.0 | 3.2 | 0.00 | 0.53 | 0.00 | 70 | 1017.9 |
| 20260504224340 | 12 | 57 | 0.0 | 6.4 | 0.00 | 0.61 | 0.00 | 70 | 1017.7 |
| 20260504223840 | 12 | 291 | 1.6 | 9.7 | 0.00 | 0.66 | 0.00 | 72 | 1017.7 |
| 20260504223340 | 12 | 280 | 1.6 | 9.7 | 0.00 | 0.71 | 0.00 | 71 | 1017.7 |
| 20260504222841 | 12 | 287 | 1.6 | 8.0 | 0.00 | 0.76 | 0.00 | 72 | 1017.6 |
| 20260504222340 | 11 | 271 | 1.6 | 11.3 | 0.00 | 0.91 | 0.00 | 74 | 1017.5 |
| 20260504221840 | 11 | 339 | 1.6 | 11.3 | 0.00 | 0.99 | 0.00 | 75 | 1017.3 |
| 20260504221341 | 11 | 305 | 1.6 | 6.4 | 0.00 | 1.02 | 0.00 | 79 | 1017.3 |
| 20260504220841 | 10 | 311 | 1.6 | 12.9 | 0.00 | 1.14 | 0.00 | 80 | 1017.2 |
| 20260504220339 | 10 | 334 | 3.2 | 12.9 | 0.00 | 1.17 | 0.00 | 81 | 1017.3 |
| 20260504215840 | 10 | 298 | 1.6 | 8.0 | 0.00 | 1.17 | 0.00 | 82 | 1017.3 |
| 20260504215610 | 10 | 0 | 1.6 | 8.0 | 0.00 | 1.17 | 0.00 | 83 | 1017.2 |
| 20260504214840 | 9 | 331 | 1.6 | 4.8 | 0.00 | 1.17 | 0.00 | 83 | 1017.2 |
| 20260504214340 | 9 | 284 | 1.6 | 8.0 | 0.00 | 1.17 | 0.00 | 84 | 1017.3 |
| 20260504213839 | 9 | 41 | 1.6 | 8.0 | 0.00 | 1.17 | 0.00 | 84 | 1017.3 |
| 20260504213821 | 8 | 306 | 0.0 | 4.8 | 0.00 | 1.17 | 0.00 | 85 | 1017.2 |
| 20260504213059 | 8 | 344 | 0.0 | 3.2 | 0.00 | 1.17 | 0.00 | 86 | 1017.2 |
| 20260504212555 | 8 | 55 | 0.0 | 0.0 | 0.00 | 1.17 | 0.00 | 87 | 1017.1 |
| 20260504211837 | 8 | 338 | 0.0 | 0.0 | 0.00 | 1.17 | 0.00 | 87 | 1017.1 |
| 20260504211602 | 8 | 338 | 0.0 | 0.0 | 0.00 | 1.17 | 0.00 | 87 | 1017.1 |
| 20260504210835 | 8 | 338 | 0.0 | 0.0 | 0.00 | 1.17 | 0.00 | 87 | 1017.1 |
| 20260504210559 | 8 | 338 | 0.0 | 0.0 | 0.00 | 1.17 | 0.00 | 86 | 1017.0 |
| 20260504205833 | 8 | 338 | 0.0 | 0.0 | 0.00 | 1.17 | 0.00 | 85 | 1016.9 |
| 20260504205333 | 8 | 338 | 0.0 | 0.0 | 0.00 | 1.17 | 0.00 | 84 | 1016.8 |
| 20260504205048 | 8 | 338 | 0.0 | 0.0 | 0.00 | 1.17 | 0.00 | 83 | 1016.7 |
| 20260504204327 | 8 | 338 | 0.0 | 0.0 | 0.00 | 1.17 | 0.00 | 82 | 1016.5 |
| 20260504203827 | 9 | 338 | 0.0 | 1.6 | 0.00 | 1.19 | 0.00 | 81 | 1016.5 |
| 20260504203326 | 9 | 338 | 0.0 | 1.6 | 0.00 | 1.19 | 0.00 | 80 | 1016.4 |
| 20260504202825 | 9 | 100 | 0.0 | 0.0 | 0.00 | 1.19 | 0.00 | 80 | 1016.4 |
| 20260504202553 | 9 | 100 | 0.0 | 6.4 | 0.00 | 1.19 | 0.00 | 80 | 1016.3 |
| 20260504201824 | 9 | 297 | 0.0 | 6.4 | 0.00 | 1.22 | 0.00 | 80 | 1016.2 |
| 20260504201322 | 9 | 282 | 0.0 | 3.2 | 0.00 | 1.22 | 0.00 | 79 | 1016.2 |
| 20260504200822 | 9 | 299 | 1.6 | 9.7 | 0.00 | 1.22 | 0.00 | 79 | 1016.1 |
| 20260504200318 | 9 | 286 | 1.6 | 9.7 | 0.00 | 1.22 | 0.00 | 80 | 1016.0 |
| 20260504195816 | 9 | 296 | 0.0 | 4.8 | 0.00 | 1.22 | 0.00 | 81 | 1015.9 |
| 20260504195313 | 9 | 280 | 0.0 | 4.8 | 0.00 | 1.24 | 0.00 | 80 | 1015.9 |
| 20260504195033 | 10 | 85 | 1.6 | 11.3 | 0.00 | 1.24 | 0.00 | 79 | 1016.0 |
| 20260504194531 | 10 | 85 | 1.6 | 11.3 | 0.00 | 1.30 | 0.00 | 79 | 1015.9 |
| 20260504194034 | 10 | 50 | 3.2 | 12.9 | 0.00 | 1.32 | 0.00 | 80 | 1015.8 |
| 20260504193311 | 9 | 41 | 3.2 | 12.9 | 0.00 | 1.32 | 0.00 | 81 | 1015.7 |
| 20260504192813 | 9 | 32 | 1.6 | 9.7 | 0.00 | 1.32 | 0.00 | 82 | 1015.7 |
| 20260504192313 | 9 | 46 | 3.2 | 14.5 | 0.00 | 1.35 | 0.00 | 82 | 1015.5 |
| 20260504191812 | 9 | 55 | 3.2 | 14.5 | 0.00 | 1.35 | 0.00 | 83 | 1015.6 |
| 20260504191312 | 9 | 46 | 3.2 | 11.3 | 0.00 | 1.35 | 0.00 | 84 | 1015.5 |
| 20260504190813 | 9 | 39 | 1.6 | 8.0 | 0.00 | 1.35 | 0.00 | 85 | 1015.5 |
| 20260504190524 | 8 | 5 | 1.6 | 8.0 | 0.00 | 1.35 | 0.00 | 86 | 1015.4 |
| 20260504185801 | 8 | 17 | 1.6 | 8.0 | 0.00 | 1.35 | 0.00 | 86 | 1015.3 |
| 20260504185255 | 8 | 29 | 1.6 | 8.0 | 0.00 | 1.35 | 0.00 | 86 | 1015.3 |
| 20260504184746 | 9 | 336 | 3.2 | 11.3 | 0.00 | 1.35 | 0.00 | 86 | 1015.3 |
| 20260504184242 | 9 | 52 | 3.2 | 11.3 | 0.00 | 1.35 | 0.00 | 85 | 1015.2 |
| 20260504183735 | 9 | 26 | 3.2 | 9.7 | 0.00 | 1.35 | 0.00 | 84 | 1015.1 |
| 20260504183229 | 9 | 34 | 3.2 | 9.7 | 0.00 | 1.35 | 0.00 | 84 | 1014.8 |
| 20260504182723 | 9 | 48 | 3.2 | 9.7 | 0.00 | 1.35 | 0.00 | 83 | 1014.8 |
| 20260504182440 | 9 | 50 | 1.6 | 9.7 | 0.00 | 1.35 | 0.00 | 83 | 1014.8 |
| 20260504181937 | 10 | 30 | 1.6 | 9.7 | 0.00 | 1.35 | 0.00 | 82 | 1014.8 |
| 20260504181249 | 10 | 48 | 1.6 | 9.7 | 0.00 | 1.35 | 0.00 | 82 | 1014.8 |
| 20260504180154 | 10 | 55 | 1.6 | 6.4 | 0.00 | 1.37 | 0.00 | 81 | 1014.8 |
| 20260504175649 | 10 | 19 | 1.6 | 6.4 | 0.00 | 1.37 | 0.00 | 80 | 1014.7 |
| 20260504175142 | 10 | 314 | 1.6 | 11.3 | 0.00 | 1.37 | 0.00 | 80 | 1014.7 |
| 20260504174635 | 10 | 303 | 1.6 | 12.9 | 0.00 | 1.37 | 0.00 | 80 | 1014.8 |
| 20260504174129 | 10 | 294 | 1.6 | 12.9 | 0.00 | 1.37 | 0.00 | 80 | 1014.8 |
| 20260504173623 | 10 | 308 | 1.6 | 8.0 | 0.00 | 1.37 | 0.00 | 80 | 1014.7 |
| 20260504173343 | 10 | 346 | 1.6 | 8.0 | 0.00 | 1.37 | 0.00 | 80 | 1014.7 |
| 20260504172832 | 10 | 350 | 1.6 | 11.3 | 0.00 | 1.37 | 0.00 | 81 | 1014.7 |
| 20260504172105 | 10 | 38 | 3.2 | 11.3 | 0.00 | 1.37 | 0.00 | 81 | 1014.7 |
| 20260504171559 | 10 | 261 | 1.6 | 8.0 | 0.00 | 1.40 | 0.00 | 81 | 1014.7 |
| 20260504171058 | 10 | 55 | 1.6 | 6.4 | 0.00 | 1.45 | 0.00 | 80 | 1014.6 |
| 20260504170547 | 10 | 37 | 1.6 | 11.3 | 0.00 | 1.47 | 0.00 | 79 | 1014.7 |
| 20260504170304 | 10 | 300 | 1.6 | 11.3 | 0.00 | 1.47 | 0.00 | 79 | 1014.7 |
| 20260504151011 | 10 | 284 | 1.6 | 9.7 | 0.00 | 1.63 | 0.00 | 79 | 1015.5 |
| 20260504150514 | 10 | 284 | 1.6 | 9.7 | 0.00 | 1.63 | 0.00 | 80 | 1015.5 |
| 20260504141007 | 10 | 32 | 3.2 | 9.7 | 0.00 | 1.75 | 0.00 | 82 | 1015.8 |
| 20260504140505 | 10 | 14 | 3.2 | 9.7 | 0.00 | 1.75 | 0.00 | 82 | 1015.8 |
| 20260504130359 | 10 | 329 | 1.6 | 9.7 | 0.00 | 1.78 | 1.75 | 85 | 1016.1 |
| 20260504120117 | 10 | 14 | 3.2 | 9.7 | 0.00 | 1.80 | 1.75 | 83 | 1016.5 |
| 20260504110315 | 10 | 31 | 0.0 | 4.8 | 0.00 | 1.80 | 1.75 | 84 | 1016.5 |